| time (UTC) | temp F | wind direction | speed MPH | gust MPH | rain 1hr in | rain 24hr in | rain mn in | humidity % | barometer mb |
| 20260906213335 | 93 | 138 | 7.0 | 23.0 | 0.00 | 0.00 | 0.00 | 26 | 1011.8 |
| 20260906212831 | 94 | 142 | 14.0 | 23.0 | 0.00 | 0.00 | 0.00 | 25 | 1011.6 |
| 20260906212320 | 94 | 175 | 11.0 | 19.0 | 0.00 | 0.00 | 0.00 | 25 | 1011.8 |
| 20260906211823 | 93 | 212 | 6.0 | 18.0 | 0.00 | 0.00 | 0.00 | 26 | 1011.8 |
| 20260906211328 | 93 | 194 | 11.0 | 18.0 | 0.00 | 0.00 | 0.00 | 26 | 1011.9 |
| 20260906210830 | 93 | 121 | 8.0 | 18.0 | 0.00 | 0.00 | 0.00 | 25 | 1011.9 |
| 20260906210356 | 93 | 113 | 6.0 | 15.0 | 0.00 | 0.00 | 0.00 | 25 | 1012.0 |
| 20260906205830 | 93 | 194 | 8.0 | 18.0 | 0.00 | 0.00 | 0.00 | 25 | 1012.1 |
| 20260906205335 | 93 | 182 | 11.0 | 21.0 | 0.00 | 0.00 | 0.00 | 25 | 1012.1 |
| 20260906204820 | 93 | 164 | 15.0 | 21.0 | 0.00 | 0.00 | 0.00 | 24 | 1012.3 |
| 20260906204322 | 93 | 134 | 8.0 | 16.0 | 0.00 | 0.00 | 0.00 | 26 | 1012.3 |
| 20260906203828 | 93 | 164 | 7.0 | 16.0 | 0.00 | 0.00 | 0.00 | 26 | 1012.5 |
| 20260906203335 | 93 | 198 | 11.0 | 15.0 | 0.00 | 0.00 | 0.00 | 26 | 1012.4 |
| 20260906202851 | 92 | 117 | 4.0 | 13.0 | 0.00 | 0.00 | 0.00 | 29 | 1012.4 |
| 20260906202336 | 92 | 185 | 5.0 | 14.0 | 0.00 | 0.00 | 0.00 | 28 | 1012.6 |
| 20260906201825 | 92 | 214 | 10.0 | 14.0 | 0.00 | 0.00 | 0.00 | 28 | 1012.6 |
| 20260906201327 | 91 | 221 | 7.0 | 13.0 | 0.00 | 0.00 | 0.00 | 29 | 1012.7 |
| 20260906200829 | 91 | 147 | 6.0 | 14.0 | 0.00 | 0.00 | 0.00 | 32 | 1012.9 |
| 20260906200332 | 91 | 190 | 6.0 | 19.0 | 0.00 | 0.00 | 0.00 | 31 | 1012.7 |
| 20260906195830 | 92 | 132 | 13.0 | 19.0 | 0.00 | 0.00 | 0.00 | 31 | 1012.9 |
| 20260906195333 | 92 | 191 | 9.0 | 19.0 | 0.00 | 0.00 | 0.00 | 30 | 1012.9 |
| 20260906194817 | 92 | 175 | 8.0 | 11.0 | 0.00 | 0.00 | 0.00 | 31 | 1013.1 |
| 20260906194323 | 91 | 187 | 6.0 | 14.0 | 0.00 | 0.00 | 0.00 | 31 | 1013.0 |
| 20260906193826 | 91 | 174 | 9.0 | 21.0 | 0.00 | 0.00 | 0.00 | 31 | 1013.4 |
| 20260906193333 | 91 | 141 | 10.0 | 21.0 | 0.00 | 0.00 | 0.00 | 31 | 1013.4 |
| 20260906192827 | 90 | 196 | 5.0 | 15.0 | 0.00 | 0.00 | 0.00 | 31 | 1013.5 |
| 20260906192328 | 90 | 161 | 10.0 | 15.0 | 0.00 | 0.00 | 0.00 | 33 | 1013.5 |
| 20260906191835 | 90 | 176 | 9.0 | 16.0 | 0.00 | 0.00 | 0.00 | 33 | 1013.5 |
| 20260906191321 | 90 | 203 | 12.0 | 16.0 | 0.00 | 0.00 | 0.00 | 33 | 1013.7 |
| 20260906190823 | 89 | 185 | 5.0 | 13.0 | 0.00 | 0.00 | 0.00 | 33 | 1013.8 |
| 20260906190326 | 89 | 144 | 6.0 | 15.0 | 0.00 | 0.00 | 0.00 | 33 | 1013.8 |
| 20260906185820 | 89 | 173 | 10.0 | 15.0 | 0.00 | 0.00 | 0.00 | 32 | 1013.9 |
| 20260906185322 | 89 | 194 | 10.0 | 14.0 | 0.00 | 0.00 | 0.00 | 33 | 1014.0 |
| 20260906184849 | 89 | 148 | 4.0 | 16.0 | 0.00 | 0.00 | 0.00 | 33 | 1014.0 |
| 20260906184331 | 89 | 184 | 11.0 | 16.0 | 0.00 | 0.00 | 0.00 | 34 | 1014.2 |
| 20260906183854 | 88 | 182 | 5.0 | 18.0 | 0.00 | 0.00 | 0.00 | 35 | 1014.2 |
| 20260906183336 | 88 | 195 | 11.0 | 18.0 | 0.00 | 0.00 | 0.00 | 34 | 1014.3 |
| 20260906182832 | 87 | 193 | 8.0 | 13.0 | 0.00 | 0.00 | 0.00 | 34 | 1014.4 |
| 20260906182334 | 87 | 179 | 4.0 | 13.0 | 0.00 | 0.00 | 0.00 | 33 | 1014.5 |
| 20260906181836 | 87 | 184 | 9.0 | 15.0 | 0.00 | 0.00 | 0.00 | 36 | 1014.5 |
| 20260906181323 | 87 | 189 | 7.0 | 15.0 | 0.00 | 0.00 | 0.00 | 38 | 1014.7 |
| 20260906180826 | 86 | 129 | 10.0 | 16.0 | 0.00 | 0.00 | 0.00 | 38 | 1014.8 |
| 20260906180350 | 86 | 158 | 11.0 | 18.0 | 0.00 | 0.00 | 0.00 | 39 | 1014.9 |
| 20260906175845 | 87 | 145 | 13.0 | 18.0 | 0.00 | 0.00 | 0.00 | 39 | 1015.0 |
| 20260906175329 | 86 | 163 | 9.0 | 19.0 | 0.00 | 0.00 | 0.00 | 41 | 1015.1 |
| 20260906174832 | 86 | 190 | 10.0 | 19.0 | 0.00 | 0.00 | 0.00 | 41 | 1015.2 |
| 20260906174354 | 85 | 188 | 8.0 | 18.0 | 0.00 | 0.00 | 0.00 | 42 | 1015.3 |
| 20260906173835 | 85 | 156 | 11.0 | 20.0 | 0.00 | 0.00 | 0.00 | 42 | 1015.5 |
| 20260906173320 | 85 | 190 | 11.0 | 20.0 | 0.00 | 0.00 | 0.00 | 42 | 1015.6 |
| 20260906172856 | 84 | 192 | 9.0 | 22.0 | 0.00 | 0.00 | 0.00 | 43 | 1015.6 |
| 20260906172318 | 84 | 158 | 12.0 | 20.0 | 0.00 | 0.00 | 0.00 | 45 | 1015.6 |
| 20260906171823 | 84 | 166 | 12.0 | 20.0 | 0.00 | 0.00 | 0.00 | 44 | 1015.8 |
| 20260906171324 | 84 | 141 | 10.0 | 21.0 | 0.00 | 0.00 | 0.00 | 45 | 1015.8 |
| 20260906170829 | 83 | 181 | 10.0 | 23.0 | 0.00 | 0.00 | 0.00 | 45 | 1015.9 |
| 20260906170333 | 83 | 163 | 16.0 | 23.0 | 0.00 | 0.00 | 0.00 | 46 | 1016.0 |
| 20260906165829 | 82 | 132 | 14.0 | 20.0 | 0.00 | 0.00 | 0.00 | 46 | 1016.2 |
| 20260906165318 | 82 | 168 | 13.0 | 20.0 | 0.00 | 0.00 | 0.00 | 46 | 1016.3 |
| 20260906164825 | 82 | 182 | 12.0 | 20.0 | 0.00 | 0.00 | 0.00 | 47 | 1016.3 |
| 20260906164329 | 82 | 200 | 11.0 | 19.0 | 0.00 | 0.00 | 0.00 | 47 | 1015.4 |
| 20260906163831 | 81 | 196 | 11.0 | 20.0 | 0.00 | 0.00 | 0.00 | 48 | 1015.5 |
| 20260906163333 | 81 | 208 | 12.0 | 21.0 | 0.00 | 0.00 | 0.00 | 48 | 1015.5 |
| 20260906162829 | 80 | 159 | 13.0 | 22.0 | 0.00 | 0.00 | 0.00 | 49 | 1015.5 |
| 20260906162351 | 80 | 146 | 15.0 | 22.0 | 0.00 | 0.00 | 0.00 | 48 | 1015.6 |
| 20260906161833 | 80 | 136 | 11.0 | 16.0 | 0.00 | 0.00 | 0.00 | 48 | 1015.7 |
| 20260906161357 | 80 | 139 | 11.0 | 22.0 | 0.00 | 0.00 | 0.00 | 48 | 1015.8 |
| 20260906160842 | 80 | 174 | 10.0 | 22.0 | 0.00 | 0.00 | 0.00 | 49 | 1015.9 |
| 20260906160344 | 79 | 123 | 12.0 | 23.0 | 0.00 | 0.00 | 0.00 | 50 | 1016.1 |
| 20260906155817 | 79 | 132 | 16.0 | 21.0 | 0.00 | 0.00 | 0.00 | 50 | 1016.1 |
| 20260906155323 | 78 | 176 | 12.0 | 22.0 | 0.00 | 0.00 | 0.00 | 51 | 1016.1 |
| 20260906154824 | 0 | 196 | 13.0 | 22.0 | 0.00 | 0.00 | 0.00 | 1016.1 | |
| 20260906154329 | 0 | 195 | 14.0 | 24.0 | 0.00 | 0.00 | 0.00 | 1016.3 | |
| 20260906153836 | 0 | 196 | 13.0 | 24.0 | 0.00 | 0.00 | 0.00 | 1016.2 | |
| 20260906153339 | 0 | 161 | 14.0 | 22.0 | 0.00 | 0.00 | 0.00 | 1016.3 | |
| 20260906152834 | 0 | 130 | 14.0 | 21.0 | 0.00 | 0.00 | 0.00 | 1016.2 | |
| 20260906152336 | 0 | 141 | 13.0 | 24.0 | 0.00 | 0.00 | 0.00 | 1016.2 | |
| 20260906151818 | 0 | 149 | 14.0 | 24.0 | 0.00 | 0.00 | 0.00 | 1016.2 | |
| 20260906151324 | 0 | 191 | 14.0 | 22.0 | 0.00 | 0.00 | 0.00 | 1016.2 | |
| 20260906150826 | 0 | 184 | 13.0 | 26.0 | 0.00 | 0.00 | 0.00 | 1016.2 | |
| 20260906150328 | 0 | 176 | 19.0 | 26.0 | 0.00 | 0.00 | 0.00 | 1016.1 | |
| 20260906145845 | 0 | 192 | 15.0 | 27.0 | 0.00 | 0.00 | 0.00 | 1016.2 | |
| 20260906145329 | 0 | 154 | 13.0 | 29.0 | 0.00 | 0.00 | 0.00 | 1016.1 | |
| 20260906144832 | 0 | 178 | 19.0 | 29.0 | 0.00 | 0.00 | 0.00 | 1016.2 | |
| 20260906144333 | 0 | 189 | 12.0 | 20.0 | 0.00 | 0.00 | 0.00 | 1016.1 | |
| 20260906143823 | 0 | 170 | 11.0 | 23.0 | 0.00 | 0.00 | 0.00 | 1016.2 | |
| 20260906143326 | 0 | 174 | 12.0 | 24.0 | 0.00 | 0.00 | 0.00 | 1016.2 | |
| 20260906142822 | 0 | 176 | 12.0 | 19.0 | 0.00 | 0.00 | 0.00 | 1016.2 | |
| 20260906142324 | 0 | 187 | 11.0 | 22.0 | 0.00 | 0.00 | 0.00 | 1016.2 | |
| 20260906141828 | 0 | 157 | 14.0 | 22.0 | 0.00 | 0.00 | 0.00 | 1016.1 | |
| 20260906141331 | 0 | 150 | 15.0 | 21.0 | 0.00 | 0.00 | 0.00 | 1016.1 | |
| 20260906140836 | 0 | 165 | 8.0 | 13.0 | 0.00 | 0.00 | 0.00 | 1016.0 | |
| 20260906140341 | 0 | 142 | 8.0 | 13.0 | 0.00 | 0.00 | 0.00 | 1015.9 | |
| 20260906135819 | 0 | 144 | 8.0 | 13.0 | 0.00 | 0.00 | 0.00 | 1015.9 | |
| 20260906135325 | 0 | 146 | 9.0 | 13.0 | 0.00 | 0.00 | 0.00 | 1015.8 | |
| 20260906134830 | 0 | 186 | 8.0 | 11.0 | 0.00 | 0.00 | 0.00 | 1015.9 | |
| 20260906134334 | 0 | 172 | 7.0 | 13.0 | 0.00 | 0.00 | 0.00 | 1015.8 | |
| 20260906133822 | 0 | 192 | 7.0 | 13.0 | 0.00 | 0.00 | 0.00 | 1015.8 | |
| 20260906133324 | 0 | 188 | 8.0 | 11.0 | 0.00 | 0.00 | 0.00 | 1015.8 | |
| 20260906132821 | 0 | 191 | 6.0 | 9.0 | 0.00 | 0.00 | 0.00 | 1015.9 | |
| 20260906132327 | 0 | 175 | 5.0 | 9.0 | 0.00 | 0.00 | 0.00 | 1015.9 | |
| 20260906131833 | 0 | 175 | 6.0 | 9.0 | 0.00 | 0.00 | 0.00 | 1015.7 | |
| 20260906131318 | 0 | 168 | 4.0 | 8.0 | 0.00 | 0.00 | 0.00 | 1015.7 | |
| 20260906130823 | 0 | 184 | 5.0 | 9.0 | 0.00 | 0.00 | 0.00 | 1015.7 | |
| 20260906130328 | 0 | 164 | 7.0 | 8.0 | 0.00 | 0.00 | 0.00 | 1015.8 | |
| 20260906125825 | 0 | 167 | 6.0 | 8.0 | 0.00 | 0.00 | 0.00 | 1015.8 | |
| 20260906125352 | 0 | 186 | 6.0 | 8.0 | 0.00 | 0.00 | 0.00 | 1015.7 | |
| 20260906124836 | 0 | 184 | 6.0 | 8.0 | 0.00 | 0.00 | 0.00 | 1015.7 | |
| 20260906124320 | 0 | 186 | 6.0 | 8.0 | 0.00 | 0.00 | 0.00 | 1015.6 | |
| 20260906123826 | 0 | 179 | 5.0 | 10.0 | 0.00 | 0.00 | 0.00 | 1015.6 | |
| 20260906123328 | 0 | 180 | 6.0 | 10.0 | 0.00 | 0.00 | 0.00 | 1015.6 | |
| 20260906122823 | 0 | 174 | 7.0 | 8.0 | 0.00 | 0.00 | 0.00 | 1015.7 | |
| 20260906122349 | 0 | 183 | 7.0 | 8.0 | 0.00 | 0.00 | 0.00 | 1015.6 | |
| 20260906121831 | 0 | 180 | 6.0 | 8.0 | 0.00 | 0.00 | 0.00 | 1015.6 | |
| 20260906121332 | 0 | 169 | 4.0 | 8.0 | 0.00 | 0.00 | 0.00 | 1015.7 | |
| 20260906120859 | 0 | 191 | 5.0 | 9.0 | 0.00 | 0.00 | 0.00 | 1015.7 | |
| 20260906120400 | 0 | 167 | 5.0 | 10.0 | 0.00 | 0.00 | 0.00 | 1015.7 | |
| 20260906115836 | 0 | 140 | 6.0 | 11.0 | 0.00 | 0.00 | 0.00 | 1015.6 | |
| 20260906115318 | 0 | 188 | 6.0 | 12.0 | 0.00 | 0.00 | 0.00 | 1015.6 | |
| 20260906114823 | 0 | 191 | 6.0 | 12.0 | 0.00 | 0.00 | 0.00 | 1015.5 | |
| 20260906114326 | 0 | 198 | 8.0 | 10.0 | 0.00 | 0.00 | 0.00 | 1015.5 | |
| 20260906113829 | 0 | 188 | 7.0 | 10.0 | 0.00 | 0.00 | 0.00 | 1015.5 | |
| 20260906113331 | 0 | 185 | 7.0 | 10.0 | 0.00 | 0.00 | 0.00 | 1015.5 | |
| 20260906112827 | 0 | 167 | 7.0 | 11.0 | 0.00 | 0.00 | 0.00 | 1015.4 | |
| 20260906112333 | 0 | 183 | 8.0 | 11.0 | 0.00 | 0.00 | 0.00 | 1015.4 | |
| 20260906111836 | 0 | 146 | 9.0 | 11.0 | 0.00 | 0.00 | 0.00 | 1015.5 | |
| 20260906111322 | 0 | 132 | 8.0 | 12.0 | 0.00 | 0.00 | 0.00 | 1015.5 | |
| 20260906110829 | 0 | 165 | 9.0 | 12.0 | 0.00 | 0.00 | 0.00 | 1015.4 | |
| 20260906110335 | 0 | 195 | 8.0 | 10.0 | 0.00 | 0.00 | 0.00 | 1015.5 | |
| 20260906105833 | 0 | 182 | 8.0 | 10.0 | 0.00 | 0.00 | 0.00 | 1015.4 | |
| 20260906105335 | 0 | 198 | 7.0 | 10.0 | 0.00 | 0.00 | 0.00 | 1015.4 | |
| 20260906104838 | 0 | 179 | 7.0 | 9.0 | 0.00 | 0.00 | 0.00 | 1015.4 | |
| 20260906104322 | 0 | 170 | 7.0 | 9.0 | 0.00 | 0.00 | 0.00 | 1015.4 | |
| 20260906103827 | 0 | 176 | 6.0 | 9.0 | 0.00 | 0.00 | 0.00 | 1015.4 | |
| 20260906103333 | 0 | 179 | 6.0 | 9.0 | 0.00 | 0.00 | 0.00 | 1015.6 | |
| 20260906102834 | 0 | 157 | 6.0 | 9.0 | 0.00 | 0.00 | 0.00 | 1015.5 | |
| 20260906102400 | 0 | 159 | 6.0 | 9.0 | 0.00 | 0.00 | 0.00 | 1015.6 | |
| 20260906101822 | 0 | 150 | 3.0 | 11.0 | 0.00 | 0.00 | 0.00 | 1015.5 | |
| 20260906101323 | 0 | 132 | 6.0 | 11.0 | 0.00 | 0.00 | 0.00 | 1015.5 | |
| 20260906100826 | 0 | 146 | 5.0 | 9.0 | 0.00 | 0.00 | 0.00 | 1015.5 | |
| 20260906100329 | 0 | 164 | 5.0 | 9.0 | 0.00 | 0.00 | 0.00 | 1015.6 | |
| 20260906095824 | 0 | 171 | 6.0 | 11.0 | 0.00 | 0.00 | 0.00 | 1015.5 | |
| 20260906095326 | 0 | 168 | 5.0 | 11.0 | 0.00 | 0.00 | 0.00 | 1015.4 | |
| 20260906094830 | 0 | 184 | 7.0 | 13.0 | 0.00 | 0.00 | 0.00 | 1015.4 | |
| 20260906094352 | 0 | 191 | 8.0 | 13.0 | 0.00 | 0.00 | 0.00 | 1015.4 | |
| 20260906093834 | 0 | 175 | 7.0 | 10.0 | 0.00 | 0.00 | 0.00 | 1015.5 | |
| 20260906093320 | 0 | 166 | 6.0 | 8.0 | 0.00 | 0.00 | 0.00 | 1015.6 | |
| 20260906092839 | 0 | 130 | 4.0 | 8.0 | 0.00 | 0.00 | 0.00 | 1015.5 | |
| 20260906092324 | 0 | 144 | 5.0 | 9.0 | 0.00 | 0.00 | 0.00 | 1015.4 | |
| 20260906091850 | 0 | 149 | 5.0 | 9.0 | 0.00 | 0.00 | 0.00 | 1015.4 | |
| 20260906091331 | 0 | 152 | 4.0 | 7.0 | 0.00 | 0.00 | 0.00 | 1015.4 | |
| 20260906090833 | 0 | 144 | 5.0 | 7.0 | 0.00 | 0.00 | 0.00 | 1015.3 | |
| 20260906090335 | 0 | 150 | 5.0 | 6.0 | 0.00 | 0.00 | 0.00 | 1015.6 | |
| 20260906085338 | 0 | 157 | 2.0 | 5.0 | 0.00 | 0.00 | 0.00 | 1015.6 | |
| 20260906084840 | 0 | 158 | 2.0 | 5.0 | 0.00 | 0.00 | 0.00 | 1015.6 | |
| 20260906084343 | 0 | 159 | 2.0 | 5.0 | 0.00 | 0.00 | 0.00 | 1015.5 | |
| 20260906083827 | 0 | 163 | 3.0 | 4.0 | 0.00 | 0.00 | 0.00 | 1015.5 | |
| 20260906083331 | 0 | 163 | 2.0 | 6.0 | 0.00 | 0.00 | 0.00 | 1015.5 | |
| 20260906082846 | 0 | 161 | 4.0 | 6.0 | 0.00 | 0.00 | 0.00 | 1015.4 | |
| 20260906082328 | 0 | 184 | 5.0 | 7.0 | 0.00 | 0.00 | 0.00 | 1015.4 | |
| 20260906081831 | 0 | 157 | 4.0 | 7.0 | 0.00 | 0.00 | 0.00 | 1015.5 | |
| 20260906081333 | 0 | 157 | 5.0 | 7.0 | 0.00 | 0.00 | 0.00 | 1015.6 | |
| 20260906080822 | 0 | 145 | 6.0 | 7.0 | 0.00 | 0.00 | 0.00 | 1015.5 | |
| 20260906080328 | 0 | 139 | 4.0 | 6.0 | 0.00 | 0.00 | 0.00 | 1015.5 | |
| 20260906075844 | 0 | 119 | 2.0 | 5.0 | 0.00 | 0.00 | 0.00 | 1015.6 | |
| 20260906075346 | 0 | 65 | 2.0 | 5.0 | 0.00 | 0.00 | 0.00 | 1015.5 | |
| 20260906074829 | 0 | 148 | 2.0 | 6.0 | 0.00 | 0.00 | 0.00 | 1015.5 | |
| 20260906074330 | 0 | 150 | 1.0 | 7.0 | 0.00 | 0.00 | 0.00 | 1015.6 | |
| 20260906073832 | 0 | 144 | 4.0 | 7.0 | 0.00 | 0.00 | 0.00 | 1015.7 | |
| 20260906073337 | 0 | 146 | 5.0 | 7.0 | 0.00 | 0.00 | 0.00 | 1015.7 | |
| 20260906072833 | 0 | 156 | 2.0 | 7.0 | 0.00 | 0.00 | 0.00 | 1015.7 | |
| 20260906072337 | 0 | 155 | 4.0 | 7.0 | 0.00 | 0.00 | 0.00 | 1015.8 | |
| 20260906071822 | 0 | 155 | 5.0 | 6.0 | 0.00 | 0.00 | 0.00 | 1015.7 | |
| 20260906071325 | 0 | 157 | 3.0 | 7.0 | 0.00 | 0.00 | 0.00 | 1015.7 | |
| 20260906070829 | 0 | 180 | 4.0 | 7.0 | 0.00 | 0.00 | 0.00 | 1015.7 | |
| 20260906070339 | 0 | 144 | 5.0 | 7.0 | 0.00 | 0.00 | 0.00 | 1015.7 | |
| 20260906065815 | 0 | 154 | 5.0 | 7.0 | 0.00 | 0.00 | 0.00 | 1015.7 | |
| 20260906065317 | 0 | 192 | 3.0 | 8.0 | 0.00 | 0.00 | 0.00 | 1015.8 | |
| 20260906064802 | 0 | 193 | 5.0 | 9.0 | 0.00 | 0.00 | 0.00 | 1015.8 | |
| 20260906064308 | 0 | 182 | 6.0 | 11.0 | 0.00 | 0.00 | 0.00 | 1015.7 | |
| 20260906063832 | 0 | 170 | 8.0 | 13.0 | 0.00 | 0.00 | 0.00 | 1015.9 | |
| 20260906063338 | 0 | 196 | 9.0 | 13.0 | 0.00 | 0.00 | 0.00 | 1015.8 | |
| 20260906062831 | 0 | 209 | 10.0 | 13.0 | 0.00 | 0.00 | 0.00 | 1015.9 | |
| 20260906062315 | 0 | 186 | 8.0 | 11.0 | 0.00 | 0.00 | 0.00 | 1015.9 | |
| 20260906061800 | 0 | 202 | 5.0 | 9.0 | 0.00 | 0.00 | 0.00 | 1016.0 | |
| 20260906061305 | 0 | 186 | 6.0 | 9.0 | 0.00 | 0.00 | 0.00 | 1016.0 | |
| 20260906060807 | 0 | 190 | 6.0 | 9.0 | 0.00 | 0.00 | 0.00 | 1016.1 | |
| 20260906060309 | 0 | 202 | 5.0 | 9.0 | 0.00 | 0.00 | 0.00 | 1015.9 | |
| 20260906055805 | 0 | 190 | 2.0 | 6.0 | 0.00 | 0.00 | 0.00 | 1015.9 | |
| 20260906055310 | 0 | 227 | 4.0 | 6.0 | 0.00 | 0.00 | 0.00 | 1015.9 | |
| 20260906054813 | 0 | 28 | 0.0 | 0.0 | 0.00 | 0.00 | 0.00 | 1015.8 | |
| 20260906054336 | 0 | 30 | 0.0 | 0.0 | 0.00 | 0.00 | 0.00 | 1015.8 | |
| 20260906053818 | 0 | 28 | 0.0 | 0.0 | 0.00 | 0.00 | 0.00 | 1015.7 | |
| 20260906053300 | 0 | 19 | 0.0 | 0.0 | 0.00 | 0.00 | 0.00 | 1015.8 | |
| 20260906052841 | 0 | 18 | 0.0 | 0.0 | 0.00 | 0.00 | 0.00 | 1015.9 | |
| 20260906052305 | 0 | 17 | 0.0 | 0.0 | 0.00 | 0.00 | 0.00 | 1015.8 | |
| 20260906051807 | 0 | 18 | 0.0 | 0.0 | 0.00 | 0.00 | 0.00 | 1015.6 | |
| 20260906051312 | 0 | 18 | 0.0 | 0.0 | 0.00 | 0.00 | 0.00 | 1015.6 | |
| 20260906050817 | 0 | 360 | 0.0 | 2.0 | 0.00 | 0.00 | 0.00 | 1015.6 | |
| 20260906050302 | 0 | 360 | 0.0 | 4.0 | 0.00 | 0.00 | 0.00 | 1015.7 | |
| 20260906045819 | 0 | 360 | 2.0 | 4.0 | 0.00 | 0.00 | 0.00 | 1015.7 | |
| 20260906045306 | 0 | 360 | 1.0 | 4.0 | 0.00 | 0.00 | 0.00 | 1015.6 | |
| 20260906044807 | 0 | 360 | 2.0 | 5.0 | 0.00 | 0.00 | 0.00 | 1015.6 | |
| 20260906044313 | 0 | 360 | 3.0 | 5.0 | 0.00 | 0.00 | 0.00 | 1015.6 | |
| 20260906043839 | 0 | 360 | 1.0 | 6.0 | 0.00 | 0.00 | 0.00 | 1015.7 | |
| 20260906043321 | 0 | 13 | 3.0 | 6.0 | 0.00 | 0.00 | 0.00 | 1015.6 | |
| 20260906042819 | 0 | 13 | 4.0 | 6.0 | 0.00 | 0.00 | 0.00 | 1015.6 | |
| 20260906042302 | 0 | 360 | 4.0 | 6.0 | 0.00 | 0.00 | 0.00 | 1015.6 | |
| 20260906041826 | 0 | 360 | 2.0 | 5.0 | 0.00 | 0.00 | 0.00 | 1015.5 | |
| 20260906041306 | 0 | 360 | 1.0 | 6.0 | 0.00 | 0.00 | 0.00 | 1015.5 | |
| 20260906040808 | 0 | 360 | 4.0 | 6.0 | 0.00 | 0.00 | 0.00 | 1015.5 | |
| 20260906040315 | 0 | 360 | 5.0 | 7.0 | 0.00 | 0.00 | 0.00 | 1015.5 | |
| 20260906035812 | 0 | 360 | 4.0 | 7.0 | 0.00 | 0.00 | 0.00 | 1015.6 | |
| 20260906035316 | 0 | 355 | 5.0 | 6.0 | 0.00 | 0.00 | 0.00 | 1015.6 | |
| 20260906034818 | 0 | 16 | 4.0 | 5.0 | 0.00 | 0.00 | 0.00 | 1015.5 | |
| 20260906034320 | 0 | 17 | 3.0 | 6.0 | 0.00 | 0.00 | 0.00 | 1015.4 | |
| 20260906033807 | 0 | 19 | 3.0 | 6.0 | 0.00 | 0.00 | 0.00 | 1015.4 | |
| 20260906033313 | 0 | 47 | 1.0 | 2.0 | 0.00 | 0.00 | 0.00 | 1015.5 | |
| 20260906032807 | 0 | 113 | 0.0 | 2.0 | 0.00 | 0.00 | 0.00 | 1015.5 | |
| 20260906032310 | 0 | 111 | 0.0 | 3.0 | 0.00 | 0.00 | 0.00 | 1015.5 | |
| 20260906031815 | 0 | 111 | 2.0 | 4.0 | 0.00 | 0.00 | 0.00 | 1015.6 | |
| 20260906031317 | 0 | 111 | 1.0 | 4.0 | 0.00 | 0.00 | 0.00 | 1015.5 | |
| 20260906030758 | 0 | 87 | 1.0 | 5.0 | 0.00 | 0.00 | 0.00 | 1015.5 | |
| 20260906030304 | 0 | 87 | 3.0 | 5.0 | 0.00 | 0.00 | 0.00 | 1015.5 | |
| 20260906025839 | 0 | 87 | 0.0 | 5.0 | 0.00 | 0.00 | 0.00 | 1015.4 | |
| 20260906025321 | 0 | 87 | 1.0 | 5.0 | 0.00 | 0.00 | 0.00 | 1015.3 | |
| 20260906024825 | 0 | 65 | 1.0 | 5.0 | 0.00 | 0.00 | 0.00 | 1015.1 | |
| 20260906024306 | 0 | 38 | 1.0 | 10.0 | 0.00 | 0.00 | 0.00 | 1015.0 | |
| 20260906023829 | 0 | 26 | 2.0 | 10.0 | 0.00 | 0.00 | 0.00 | 1014.7 | |
| 20260906023313 | 0 | 26 | 2.0 | 7.0 | 0.00 | 0.00 | 0.00 | 1014.8 | |
| 20260906022811 | 0 | 33 | 3.0 | 7.0 | 0.00 | 0.00 | 0.00 | 1014.8 | |
| 20260906022259 | 0 | 19 | 4.0 | 6.0 | 0.00 | 0.00 | 0.00 | 1014.6 | |
| 20260906021825 | 0 | 17 | 3.0 | 6.0 | 0.00 | 0.00 | 0.00 | 1014.6 | |
| 20260906021309 | 0 | 15 | 2.0 | 6.0 | 0.00 | 0.00 | 0.00 | 1014.5 | |
| 20260906020813 | 0 | 27 | 1.0 | 6.0 | 0.00 | 0.00 | 0.00 | 1014.4 | |
| 20260906020316 | 0 | 21 | 3.0 | 6.0 | 0.00 | 0.00 | 0.00 | 1014.3 | |
| 20260906015814 | 0 | 43 | 2.0 | 7.0 | 0.00 | 0.00 | 0.00 | 1014.3 | |
| 20260906015258 | 0 | 39 | 4.0 | 9.0 | 0.00 | 0.00 | 0.00 | 1014.3 | |
| 20260906014803 | 0 | 9 | 5.0 | 9.0 | 0.00 | 0.00 | 0.00 | 1014.2 | |
| 20260906014310 | 0 | 34 | 3.0 | 10.0 | 0.00 | 0.00 | 0.00 | 1014.2 | |
| 20260906013815 | 0 | 24 | 5.0 | 9.0 | 0.00 | 0.00 | 0.00 | 1014.3 | |
| 20260906013317 | 0 | 9 | 4.0 | 8.0 | 0.00 | 0.00 | 0.00 | 1014.3 | |
| 20260906012831 | 0 | 5 | 4.0 | 10.0 | 0.00 | 0.00 | 0.00 | 1014.2 | |
| 20260906012313 | 86 | 76 | 4.0 | 10.0 | 0.00 | 0.00 | 0.00 | 25 | 1014.3 |
| 20260906011801 | 86 | 43 | 3.0 | 9.0 | 0.00 | 0.00 | 0.00 | 25 | 1014.3 |
| 20260906011307 | 86 | 63 | 4.0 | 9.0 | 0.00 | 0.00 | 0.00 | 25 | 1014.3 |
| 20260906010811 | 87 | 55 | 6.0 | 10.0 | 0.00 | 0.00 | 0.00 | 24 | 1014.5 |
| 20260906010316 | 87 | 32 | 4.0 | 10.0 | 0.00 | 0.00 | 0.00 | 24 | 1014.3 |
| 20260906005831 | 88 | 70 | 3.0 | 10.0 | 0.00 | 0.00 | 0.00 | 24 | 1014.4 |
| 20260906005311 | 88 | 26 | 6.0 | 15.0 | 0.00 | 0.00 | 0.00 | 24 | 1014.2 |
| 20260906004815 | 88 | 5 | 7.0 | 15.0 | 0.00 | 0.00 | 0.00 | 23 | 1014.2 |
| 20260906004319 | 88 | 52 | 5.0 | 13.0 | 0.00 | 0.00 | 0.00 | 23 | 1014.2 |
| 20260906003822 | 89 | 5 | 5.0 | 11.0 | 0.00 | 0.00 | 0.00 | 23 | 1014.2 |
| 20260906003304 | 89 | 14 | 5.0 | 11.0 | 0.00 | 0.00 | 0.00 | 23 | 1014.2 |
| 20260906002820 | 89 | 38 | 6.0 | 11.0 | 0.00 | 0.00 | 0.00 | 23 | 1014.2 |
| 20260906002307 | 89 | 38 | 4.0 | 10.0 | 0.00 | 0.00 | 0.00 | 22 | 1014.3 |
| 20260906001808 | 90 | 28 | 4.0 | 8.0 | 0.00 | 0.00 | 0.00 | 22 | 1014.3 |
| 20260906001331 | 90 | 5 | 4.0 | 11.0 | 0.00 | 0.00 | 0.00 | 22 | 1014.3 |
| 20260906000820 | 91 | 59 | 5.0 | 12.0 | 0.00 | 0.00 | 0.00 | 22 | 1014.3 |
| 20260906000303 | 91 | 28 | 8.0 | 12.0 | 0.00 | 0.00 | 0.00 | 22 | 1014.2 |
| 20260905235818 | 91 | 5 | 8.0 | 11.0 | 0.00 | 0.00 | 0.00 | 21 | 1014.1 |
| 20260905235306 | 91 | 29 | 1.0 | 6.0 | 0.00 | 0.00 | 0.00 | 21 | 1014.1 |
| 20260905234809 | 91 | 42 | 1.0 | 7.0 | 0.00 | 0.00 | 0.00 | 21 | 1014.0 |
| 20260905234314 | 91 | 36 | 3.0 | 7.0 | 0.00 | 0.00 | 0.00 | 21 | 1014.0 |
| 20260905233817 | 92 | 60 | 2.0 | 6.0 | 0.00 | 0.00 | 0.00 | 21 | 1013.9 |
| 20260905233323 | 92 | 26 | 3.0 | 7.0 | 0.00 | 0.00 | 0.00 | 20 | 1014.0 |
| 20260905232820 | 92 | 346 | 5.0 | 7.0 | 0.00 | 0.00 | 0.00 | 21 | 1014.0 |
| 20260905232305 | 92 | 40 | 1.0 | 8.0 | 0.00 | 0.00 | 0.00 | 20 | 1014.0 |
| 20260905231828 | 92 | 325 | 4.0 | 8.0 | 0.00 | 0.00 | 0.00 | 20 | 1013.8 |
| 20260905231312 | 93 | 348 | 5.0 | 14.0 | 0.00 | 0.00 | 0.00 | 20 | 1013.8 |
| 20260905230815 | 93 | 306 | 6.0 | 14.0 | 0.00 | 0.00 | 0.00 | 20 | 1013.8 |
| 20260905230321 | 93 | 327 | 7.0 | 12.0 | 0.00 | 0.00 | 0.00 | 20 | 1013.8 |
| 20260905225816 | 92 | 5 | 4.0 | 12.0 | 0.00 | 0.00 | 0.00 | 20 | 1013.8 |
| 20260905225339 | 92 | 184 | 5.0 | 11.0 | 0.00 | 0.00 | 0.00 | 21 | 1013.9 |
| 20260905224820 | 92 | 267 | 6.0 | 11.0 | 0.00 | 0.00 | 0.00 | 21 | 1013.9 |
| 20260905224343 | 92 | 318 | 6.0 | 14.0 | 0.00 | 0.00 | 0.00 | 21 | 1013.8 |
| 20260905223823 | 92 | 289 | 4.0 | 14.0 | 0.00 | 0.00 | 0.00 | 20 | 1013.9 |
| 20260905223307 | 92 | 224 | 6.0 | 12.0 | 0.00 | 0.00 | 0.00 | 20 | 1013.9 |
| 20260905222806 | 92 | 287 | 7.0 | 12.0 | 0.00 | 0.00 | 0.00 | 19 | 1013.9 |
| 20260905222309 | 92 | 286 | 7.0 | 12.0 | 0.00 | 0.00 | 0.00 | 19 | 1013.9 |
| 20260905221812 | 92 | 244 | 7.0 | 18.0 | 0.00 | 0.00 | 0.00 | 19 | 1014.1 |
| 20260905221314 | 93 | 238 | 10.0 | 18.0 | 0.00 | 0.00 | 0.00 | 19 | 1014.1 |
| 20260905220800 | 93 | 232 | 12.0 | 18.0 | 0.00 | 0.00 | 0.00 | 19 | 1014.2 |
| 20260905220304 | 93 | 236 | 14.0 | 18.0 | 0.00 | 0.00 | 0.00 | 20 | 1014.2 |
| 20260905215819 | 93 | 215 | 8.0 | 13.0 | 0.00 | 0.00 | 0.00 | 20 | 1014.2 |
| 20260905215306 | 93 | 189 | 6.0 | 14.0 | 0.00 | 0.00 | 0.00 | 19 | 1014.2 |
| 20260905214807 | 92 | 257 | 10.0 | 15.0 | 0.00 | 0.00 | 0.00 | 19 | 1014.3 |
| 20260905214313 | 93 | 215 | 7.0 | 15.0 | 0.00 | 0.00 | 0.00 | 20 | 1014.3 |
| 20260905213817 | 92 | 292 | 4.0 | 8.0 | 0.00 | 0.00 | 0.00 | 21 | 1014.3 |